Regional Weather Roundup
Issued by NWS

Home | Current Version | Previous Version | Graphics & Text | Print | Product List | Glossary On
Versions: 1 2 3 4 5 6 7 8 9 10 11 12 13 14 15 16 17 18 19 20 21 22 23 24 25 26 27 28 29 30 31 32 33 34 35 36 37 38 39 40 41 42 43 44 45 46 47 48 49 50
000
ASUS43 KLMK 290510
RWRKY
KENTUCKY REGIONAL WEATHER ROUNDUP
NATIONAL WEATHER SERVICE LOUISVILLE KY
100 AM EDT WED JUL 29 2015

NOTE "FAIR" INDICATES FEW OR NO CLOUDS BELOW 12,000 FEET
WITH NO SIGNIFICANT WEATHER AND/OR OBSTRUCTIONS TO VISIBILITY.

KYZ001>023-026-027-061>063-070>075-290600-
WESTERN AND SOUTH CENTRAL KENTUCKY

CITY           SKY/WX    TMP DP  RH WIND       PRES   REMARKS
PADUCAH        CLOUDY    77  73  87 S7        29.99R
HENDERSON      CLOUDY    73  72  94 CALM      29.97S
OWENSBORO      NOT AVBL
HOPKINSVILLE   CLOUDY    74  72  92 SW2       30.00R
BOWLING GREEN  PTCLDY    74  71  91 E3        30.00F
GLASGOW        CLOUDY   N/A N/A N/A CALM      30.01S
$$

KYZ024-025-028>034-038-045-046-053-290600-
NORTH CENTRAL KENTUCKY

CITY           SKY/WX    TMP DP  RH WIND       PRES   REMARKS
LOUISVILLE/SDF MOCLDY    81  73  76 SW5       29.97F
LOUISVILLE/LOU CLEAR     81  73  76 CALM      29.98F
FORT KNOX      CLEAR     74  72  93 CALM      29.98S
$$

KYZ035>037-039>044-047>052-055>060-089>105-290600-
NORTHEAST KENTUCKY

CITY           SKY/WX    TMP DP  RH WIND       PRES   REMARKS
LEXINGTON      MOCLDY    73  71  93 SE3       30.01F
COVINGTON      CLEAR     76  73  91 CALM      30.00F
FRANKFORT      PTCLDY    74  72  93 CALM      29.99F
$$

KYZ054-064>069-076>088-106>120-290600-
SOUTHEAST KENTUCKY

CITY           SKY/WX    TMP DP  RH WIND       PRES   REMARKS
JACKSON        CLEAR     74  72  93 CALM      30.04S FOG
LONDON         MOCLDY    75  69  81 CALM      30.05R
SOMERSET       PTCLDY    72  72 100 CALM      30.05S FOG
MIDDLESBORO    MOCLDY    74  73  99 CALM      30.05R
MONTICELLO     MOCLDY    75  74  97 CALM      30.06S
$$



USA.gov is the U.S. government's official web portal to all federal, state and local government web resources and services.